Theta_e
312 313 317 322 321 320 317 317 317 321 325 326 324 322 319 316 314 315 316 317 317 318 314 318 321 316 314 312 312 312 314 315 317 314 314 312 315 312 315 324 323 325 326 328 333
312 316 316 321 321 320 317 316 316 321 325 325 324 322 320 314 314 315 316 317 318 318 317 321 320 320 316 315 312 314 315 317 314 313 314 313 313 312 320 326 329 328 327 332 332
313 315 315 319 321 321 318 316 316 320 325 325 323 322 316 313 313 313 316 317 314 317 321 320 320 318 323 318 314 313 315 314 315 313 313 313 312 313 319 325 323 328 328 331 331
315 315 315 313 321 321 319 317 316 320 323 324 323 322 319 313 321 316 316 316 314 316 320 317 315 317 322 326 318 316 313 312 312 313 313 313 310 314 316 316 315 324 329 331 330
315 317 317 315 322 320 319 316 316 318 322 324 322 322 316 316 316 320 314 315 315 315 317 315 318 315 319 317 317 316 314 311 311 311 313 311 312 314 314 314 322 327 329 331 331
311 315 315 315 320 320 319 316 318 318 321 323 322 322 318 322 319 317 316 315 316 317 317 318 316 316 315 313 321 313 314 313 311 312 312 313 311 313 312 324 326 328 328 329 331
312 312 315 314 319 320 318 315 317 319 320 324 323 319 319 320 318 319 316 316 316 316 317 315 318 324 319 319 317 313 314 311 310 312 312 310 313 312 310 325 327 327 327 325 329
313 312 316 317 319 319 317 315 317 318 321 323 319 318 319 318 316 318 319 318 318 316 316 317 320 316 318 319 322 313 310 312 311 310 310 311 314 312 315 325 326 325 324 325 324
312 316 316 319 319 318 317 316 318 319 323 321 316 316 316 313 315 317 320 319 319 316 313 318 317 319 317 325 328 325 319 310 311 309 310 311 313 309 313 324 326 324 323 324 323
310 316 315 316 318 317 316 318 320 322 322 316 314 314 309 311 317 317 320 320 319 319 317 315 313 317 319 327 332 328 322 311 311 311 310 310 310 308 306 323 325 324 324 323 324
310 316 315 317 316 316 318 321 321 321 316 316 315 310 309 311 320 320 321 320 319 321 324 317 317 321 321 324 318 326 319 314 310 310 311 310 310 310 306 306 317 320 320 321 323
307 312 317 316 316 317 320 320 318 318 315 312 314 308 308 314 320 318 320 321 322 324 319 316 319 317 318 318 323 314 325 320 310 308 309 310 310 307 305 305 307 314 313 317 314
309 310 316 316 316 319 319 317 316 314 312 312 313 309 308 312 316 319 318 317 323 321 321 323 319 315 314 316 313 318 315 312 312 309 308 309 310 308 306 304 305 302 304 306 311
309 309 316 315 318 319 318 316 315 313 314 313 314 311 308 308 314 312 314 314 316 324 318 316 316 317 315 315 315 315 310 310 309 311 313 307 312 307 306 306 304 304 301 300 300
308 308 314 315 318 318 317 315 313 313 322 312 312 308 307 311 311 313 309 311 317 319 316 318 312 315 313 314 315 317 308 309 310 309 309 307 308 309 304 306 305 303 302 302 301
307 307 310 315 316 317 317 312 311 317 319 313 309 309 310 308 309 309 308 309 312 317 316 314 311 309 310 309 314 308 310 309 308 307 310 311 307 308 306 305 306 305 303 304 301
307 307 307 316 317 316 314 312 314 320 309 309 310 309 310 308 309 313 310 312 314 321 319 316 315 310 308 311 308 311 311 314 315 310 313 303 305 311 306 302 305 308 306 304 301
306 307 308 315 315 312 312 314 317 310 311 306 308 310 310 308 308 310 309 312 308 310 316 319 320 314 310 311 310 311 313 313 314 313 311 303 308 309 304 302 301 301 302 302 302
306 307 313 314 312 312 312 317 316 309 306 308 308 310 308 308 308 310 311 311 309 308 314 316 318 311 308 311 311 311 317 309 307 299 307 305 304 303 303 303 305 304 302 302 302
305 307 314 312 311 311 315 318 304 305 307 308 309 307 308 310 308 309 311 309 308 306 305 308 310 308 309 310 309 312 310 314 311 308 308 305 303 308 305 306 305 306 305 304 302
304 305 312 311 311 312 316 315 306 306 307 307 306 306 307 310 307 310 311 308 308 307 304 305 308 309 307 310 313 312 314 311 311 309 311 310 308 301 305 305 306 305 306 305 303
299 305 305 311 314 311 315 308 307 306 305 305 305 305 307 308 307 310 309 309 309 307 309 305 307 309 309 307 310 312 314 314 316 313 304 308 309 303 301 301 302 302 305 304 304
298 299 305 311 314 311 312 308 309 306 306 306 306 306 305 308 308 307 307 307 308 308 308 307 308 307 310 308 307 311 308 309 313 308 312 312 311 302 302 304 303 304 305 304 304
297 305 302 311 309 311 312 309 309 306 307 306 305 305 306 307 306 307 307 306 307 309 309 309 309 308 311 310 307 308 311 309 310 314 315 313 310 306 305 304 304 305 305 304 303
296 300 297 310 310 312 310 308 310 310 309 308 307 306 306 307 307 307 307 309 306 309 308 308 310 307 308 307 308 308 309 311 311 311 312 312 307 304 304 304 304 305 305 304 303
299 299 298 302 309 313 311 309 309 310 311 311 306 305 305 306 307 307 308 308 308 307 307 304 303 306 305 308 307 307 308 308 310 311 311 311 312 309 303 303 305 305 305 305 305
295 294 297 302 310 312 311 309 308 309 309 308 306 306 307 306 306 307 307 307 307 308 308 306 304 303 305 304 307 305 307 307 307 307 309 310 310 303 304 302 303 304 305 306 306
Wind_Speed
32 37 32 45 44 43 41 39 36 36 36 35 30 27 21 17 13 11 8 8 14 7 13 8 3 3 6 4 5 2 4 2 4 5 5 4 4 2 2 6 1 1 5 5 26
34 37 35 42 47 45 44 40 37 38 39 36 31 28 23 18 13 8 11 15 16 13 13 10 3 2 4 2 3 3 3 6 5 4 4 6 5 9 5 4 1 2 5 24 26
37 37 40 39 50 48 46 42 39 41 39 37 32 28 25 17 3 8 22 16 13 16 12 11 5 3 4 3 4 2 2 3 3 4 3 4 4 4 8 3 7 8 11 19 22
37 36 31 37 51 48 47 45 40 42 41 38 34 30 26 16 8 4 25 22 17 14 15 14 5 6 5 6 2 3 2 4 6 1 3 4 6 6 7 6 3 11 22 21 19
23 30 33 39 48 50 46 47 41 43 41 40 36 32 20 6 6 4 24 25 20 17 16 6 5 5 6 6 4 3 4 6 7 7 2 5 2 3 6 4 3 16 16 16 18
22 25 35 33 51 49 48 46 41 43 40 40 38 32 11 10 5 1 24 20 18 14 9 10 6 2 6 3 7 2 4 8 6 2 2 3 1 2 2 4 7 15 15 12 17
25 29 31 34 53 48 47 46 41 45 43 40 36 30 8 10 9 7 26 23 18 7 7 3 15 5 2 5 5 3 4 8 6 4 1 4 1 6 3 6 8 10 11 9 12
24 30 35 39 50 46 45 44 41 44 43 46 42 19 4 12 4 13 22 19 13 10 15 15 15 8 4 2 3 2 3 4 4 4 4 6 8 4 6 10 10 8 7 8 9
15 29 30 35 48 45 44 41 41 46 46 41 26 11 4 11 9 18 27 21 18 17 20 18 10 4 3 8 2 2 6 2 7 3 2 5 6 4 6 8 9 9 8 8 6
16 23 33 42 47 46 44 41 45 45 42 23 17 9 5 7 11 16 19 26 9 6 6 4 3 3 3 11 12 8 8 4 5 4 0 4 7 3 3 7 9 8 8 8 8
16 28 38 50 48 45 44 47 12 11 6 3 10 3 12 21 17 8 21 22 7 3 5 1 4 10 15 16 8 13 5 6 3 3 4 6 7 10 5 3 7 9 8 7 10
21 19 41 43 44 48 49 16 17 13 12 4 14 4 8 21 9 6 24 8 9 12 8 5 12 7 10 11 11 1 8 10 4 4 2 3 12 6 5 7 8 10 9 12 7
13 17 39 42 45 51 34 22 27 34 6 4 5 5 7 9 6 16 10 4 13 9 15 8 2 13 8 10 8 6 7 6 5 1 1 2 7 5 5 5 5 7 7 6 12
13 19 37 41 41 38 17 33 44 24 4 4 5 3 4 9 5 5 12 4 3 9 10 2 4 17 12 14 12 7 11 6 4 6 6 1 6 6 6 9 8 10 9 11 11
13 21 19 47 28 20 25 44 37 8 8 13 5 9 5 10 16 6 4 4 7 8 6 4 2 14 17 17 15 5 5 5 2 2 3 4 2 7 2 9 7 11 12 13 14
13 19 20 47 25 35 38 38 8 6 5 8 7 9 12 3 3 9 5 6 3 5 3 3 3 4 7 8 18 9 8 4 2 3 3 11 7 5 9 7 7 10 12 14 12
11 19 20 47 19 42 45 12 6 7 9 8 8 12 14 6 6 16 13 7 6 7 5 2 3 4 3 7 4 15 10 3 5 2 11 1 5 16 5 9 8 15 17 14 8
10 15 19 36 43 52 32 9 5 6 9 5 9 20 7 15 3 7 12 7 5 5 4 7 5 9 3 6 5 18 13 6 8 5 6 3 8 7 10 8 7 9 7 6 10
8 16 15 31 52 49 15 14 9 10 8 10 15 19 5 7 8 10 16 14 9 8 7 7 6 3 4 3 6 5 16 2 4 2 3 5 8 7 7 9 6 10 6 11 11
2 4 20 47 47 31 15 15 6 9 14 22 9 7 9 19 7 10 19 17 10 10 4 8 3 4 9 5 5 2 5 7 1 2 4 4 5 7 3 11 10 10 13 12 8
0 1 23 54 38 13 17 10 5 6 18 7 8 8 9 15 7 14 21 3 10 15 5 6 4 3 6 7 11 6 5 4 2 3 4 0 6 7 11 11 12 13 10 8 8
2 3 4 52 11 7 14 8 5 7 2 5 6 5 12 17 5 12 14 9 20 19 15 6 5 4 6 4 6 9 13 15 7 11 1 1 9 2 8 8 6 8 7 6 7
1 2 7 25 13 11 12 2 4 8 5 5 5 4 6 12 6 5 9 12 16 17 18 9 3 3 4 3 2 9 7 6 13 2 10 6 10 1 6 7 7 7 6 5 5
1 2 2 6 3 18 21 10 6 5 5 5 6 6 10 10 0 12 10 6 13 18 6 13 4 7 9 4 7 7 17 14 15 6 12 19 19 9 9 10 5 6 5 6 6
1 2 2 6 7 21 19 9 7 7 3 6 3 10 11 6 6 5 5 4 4 10 8 6 8 5 1 1 11 9 20 25 21 21 11 30 16 9 9 10 6 4 3 6 7
2 1 2 3 11 22 20 20 10 5 7 6 9 10 6 8 9 7 8 5 8 3 8 0 3 4 3 6 1 5 14 22 29 28 22 27 29 13 6 4 6 8 8 8 10
1 4 1 4 9 14 20 29 18 11 5 6 10 7 5 6 10 11 7 8 11 13 15 7 6 3 5 2 2 4 16 14 13 14 22 19 28 8 11 11 10 6 9 12 15
Wind_Direction
227 241 245 216 212 210 209 209 214 209 205 204 201 201 195 194 190 184 207 209 215 173 182 165 203 212 76 36 65 90 67 193 224 157 235 161 140 124 96 120 7 131 154 176 163
227 227 230 224 211 208 209 207 211 205 202 201 200 197 192 189 188 218 210 207 208 213 182 181 164 38 60 66 97 123 115 215 207 207 222 192 170 157 131 125 193 53 40 138 151
229 229 237 238 206 203 210 207 209 202 202 204 196 191 185 175 50 240 212 198 179 200 204 188 156 64 86 21 22 76 204 344 283 231 191 192 176 171 124 213 212 184 153 152 160
235 231 235 235 202 200 205 205 207 199 200 200 191 186 185 176 191 239 207 192 175 171 164 151 126 123 159 154 135 67 253 291 291 29 149 187 136 172 184 213 226 169 164 159 175
235 233 231 219 204 198 197 202 203 197 198 196 187 184 160 197 239 318 182 172 172 166 161 137 125 142 145 122 92 89 277 307 315 310 203 144 197 196 212 342 110 137 161 170 176
251 249 238 234 199 195 196 198 198 194 194 191 185 176 159 206 173 179 175 168 172 178 155 140 149 154 81 87 159 185 277 284 274 294 180 172 136 184 165 119 124 151 170 176 179
254 244 227 235 188 191 194 196 195 194 193 184 179 164 168 189 194 216 180 171 162 168 149 126 128 92 155 101 4 341 301 289 245 166 167 148 40 230 141 141 151 172 172 168 185
254 227 214 210 190 190 195 196 195 192 187 169 165 150 175 195 203 182 180 177 157 134 148 139 136 86 80 336 38 58 279 256 299 181 142 126 251 246 158 151 177 189 174 176 188
274 213 213 199 188 191 192 191 188 185 183 166 151 144 161 167 179 176 174 165 152 93 94 114 99 97 78 144 104 227 243 275 314 262 130 141 248 268 167 174 189 190 189 193 207
284 231 200 202 185 188 188 180 177 167 164 135 136 101 169 187 143 163 179 162 130 110 78 72 85 100 131 173 200 176 213 251 226 222 267 157 252 285 191 192 199 195 196 199 205
284 225 221 175 181 184 166 156 161 166 176 110 142 70 132 132 122 140 152 151 110 160 144 159 164 202 184 194 140 204 179 230 245 244 187 206 235 243 191 189 219 223 203 215 220
272 275 181 178 183 176 167 168 154 142 101 14 158 110 124 131 119 130 144 145 165 178 126 131 225 191 164 183 206 111 217 228 294 339 256 191 248 248 191 221 213 214 208 212 213
263 285 178 182 181 171 168 162 144 135 95 62 137 108 152 101 125 158 163 144 170 163 177 185 210 163 170 184 163 202 217 234 233 123 131 340 286 233 226 228 205 212 222 217 218
262 258 200 184 177 167 167 150 144 137 97 128 181 172 121 127 70 142 161 130 75 174 163 203 217 178 188 194 178 194 194 209 157 157 230 348 266 261 217 232 208 226 204 225 219
241 243 203 189 169 174 156 155 151 160 182 153 151 160 154 152 134 222 150 62 143 145 148 176 181 183 195 195 178 191 152 155 157 136 104 231 239 238 122 238 233 235 227 226 223
245 247 253 189 185 167 161 147 129 138 174 160 134 173 147 124 132 134 136 69 106 103 43 126 289 215 194 169 179 145 91 18 48 119 247 211 198 244 206 196 225 227 230 226 215
262 235 265 181 174 164 147 141 135 176 157 158 172 168 154 137 113 165 165 138 145 141 174 107 258 304 210 134 127 167 150 173 227 184 234 9 163 239 225 220 213 217 225 227 200
268 239 257 174 162 150 151 158 152 141 166 133 135 146 145 141 86 150 148 164 221 119 132 158 206 207 222 190 176 193 177 174 188 206 224 108 237 249 225 225 230 246 251 217 196
255 250 211 165 156 154 155 175 173 156 157 127 119 146 146 189 137 149 189 186 183 170 142 166 242 122 223 167 158 170 198 238 81 29 77 203 280 294 259 273 265 251 245 235 212
338 292 176 162 158 159 172 193 118 135 131 146 142 168 164 174 130 171 175 201 176 173 167 194 143 203 192 121 60 100 173 208 186 206 234 249 281 232 233 230 227 237 236 236 222
340 164 158 157 147 160 188 171 114 160 136 142 144 157 169 175 152 180 185 240 168 178 148 152 113 13 133 211 187 143 209 205 321 191 205 227 260 216 205 223 229 231 243 245 204
18 210 218 150 154 189 173 147 134 152 266 113 106 111 166 162 117 174 191 192 185 162 191 199 122 143 189 333 161 201 203 201 195 207 238 26 255 197 238 275 269 269 248 206 179
169 319 285 191 172 180 145 148 113 148 151 149 115 140 146 156 141 170 178 218 177 167 171 170 165 83 36 337 75 210 199 168 216 358 239 239 250 237 243 262 257 269 244 225 194
130 189 290 209 80 162 166 169 114 152 145 115 116 112 118 163 60 181 170 174 177 193 134 157 156 159 186 206 138 189 195 194 190 205 246 253 266 300 300 297 250 214 215 189 196
351 343 344 182 154 173 171 151 114 153 192 151 90 159 150 135 160 142 132 101 117 170 171 177 205 159 130 188 173 179 192 201 209 217 215 242 243 217 247 274 308 300 184 184 198
149 24 297 358 138 172 174 184 150 144 148 187 137 162 156 149 182 155 124 159 167 152 158 140 228 119 2 339 243 201 200 202 211 217 226 245 260 256 254 256 240 226 194 211 214
158 133 31 353 158 170 191 180 174 132 28 125 141 129 136 176 164 165 151 143 158 166 185 149 132 105 224 327 69 320 225 202 213 215 218 230 244 181 227 237 244 241 201 219 219